Timeline UpdatesTrip UpdatesNews PostsPvt Posts♥♥Travel TipsAdmin PostsConv PostsFollowed PostsChat RequestsBlog PostsPNR Posts

Disclaimer
Search
 
 
Mon Nov 24, 2014 01:35:10 ISTHomeTrainsΣChainsAtlasPNRForumGalleryNewsFAQTripsMembersLoginFeedback
No Recent News for this Train
Other Trains in the News **new
Latest...
.
Sat Nov 30, 2013 (12:14PM)
⇐ Return Journey: Train# 13288

13287/South Bihar Express

Time-Table HAS CHANGED.
Sep 03 2014 (10:06AM)
Change Departure Station:
Change Arrival Station:
Post a Train Travel TipPost a Train Travel Tip **new
Post a Comment/Question/Picture/VideoPost a Comment/Question/Picture/Video
Pantry/Catering
✕ NO Pantry Car
✓ Catering Avbl
local vendor sell items. Travelkhana.com supply food on order @...
Read more...
Rourkela/TATA
Loco/Rake Reversals
ASN/Asansol Junction (7); TATA/Tatanagar Junction (5);
RSA - Rake Sharing
Rake/Coach Composition
LOCO-SLR-GS-GS-H1-A2-A1-B3-B2-B1-S11-S10-S9-S8-S7-S6-S5-S4-S3-S2-S1-GS-GS-SLR
Loco
HWH/SRC WAP-4
News    PNR    Forum    Time-Table    Availability    Fare Chart    Map    Arr/Dep History    Trips    Gallery    ΣChains    X/O    Timeline    
Travel Time: 20h 40m    44 halts    Distance: 965 km    Avg Speed: 46 km/hr
Type: Mail/Express
Zone: ECR/East Central
Departs @ 10:30 (Avg 11m late)
Platform# 1
SMTWTFS
Bilaspur Junction/BSP 
Arrives @ 07:10 +1 night (Avg 25m late)
Platform# 3
SMTWTFS
Patna Junction/PNBE 

44 halts. 165 intermediate Stations between Bilaspur Junction and Patna Junction

Show ALL intermediate Stations  Show Old Time-Table

#TrkCodeStation NameX/OArrivesAvgDepartsAvgHaltPFDay#KmSpeedElevZoneAddress
1/==/DURGDurg Junction (6)  -07:25+141-147.460299mSECRPh: 91-788-2322059, Chhattisgarh
2/==/BPHBBhilai Power House (3)X  07:35 07:34+007:36+01 2m--1-138.449312mSECRBhilai, Chhattisgarh
3/==/RRaipur Junction (6)XO  08:10+008:20+310m51-110.469297mSECRRaipur, Chhattisgarh
4/==/TLDTilda (3)  08:54 08:53+1108:55+111 2m21-72.387 SECRBanjari Rd, Chhattisgarh
5/==/BYTBhatapara (4)X  09:14 09:13+1209:15+121 2m21-46.246270mSECRBanjari Road, Chhattisgarh
6/==/BSPBilaspur Junction (8)»X  10:15+410:30+1115m110.063271mSECRBilaspur, Chhattisgarh
7/==/AKTAkaltara (4)X  10:57 10:56+1110:58+111 2m--127.252284mSECRDist. Janjgir Champa, Chhattisgarh
8/==/CPHChampa Junction (3)  11:28+611:30+72m2153.091264mSECRNational Highway 200 (07819-245767), Chhattisgarh
9/==/SKTSakti (4)  11:51 11:50+1311:52+131 2m--183.477237mSECRJanjgir-Champa, Chhattisgarh
10/==/KHSKharsia  12:05 12:04+1512:06+151 2m--198.864 SECRNational Highway 200, Chhattisgarh
11/==/RIGRaigarh (3)X  12:38+1312:43+135m11132.895220mSECRRaigarh, Chhattisgarh
12/==/BRJNBrajrajnagar  13:22 13:21+2513:23+251 2m--1192.719212mSECRBrajrajnagar, Odisha
13/==/JSGJharsuguda Junction (5)X  14:00+814:05+125m--1204.481236mSERJharsuguda, Odisha
14/==/BMBBamra (3)X  14:32+1514:33+171m--1240.980259mSERBamra PH : 06642-229268, Odisha
15/==/GPRaj Gangpur (3)  14:59+2415:00+251m--1275.551237mSERRaj Ganpur, Odisha
16/==/ROURourkela Junction (5)  15:35+1515:50+1615m41305.439198mSERRourkela, Odisha
17/--/BNDMBondamunda (2)  16:00+3116:01+311m21311.971213mSERRourkela, Odisha
18/==/MOUManoharpur  16:29+2516:30+261m31345.157228mSERManoharpur, Jharkhand
19/==/GOLGoilkera (2)X  16:59+2317:00+241m11372.659333mSERGoilkera, Jharkhand
20/==/SWRSonua  17:13+2517:14+261m11385.452287mSERSonua, Jharkhand
21/==/CKPChakradharpur (3)  17:38+1617:40+162m21406.475235mSERChakradharpur (West Singhbhum), Jharkhand
22/==/RKSNRajkharsawan Junction (3)X  17:56+1817:57+191m21426.551189mSERSaraikela Kharswan District, Jharkhand
23/==/SINISini Junction (3)X  18:15+1918:16+201m11441.741182mSERNational Highway 33, Jharkhand
24/==/TATATatanagar Junction (5)X18:55+819:35+640m21468.723164mSER91-657-2423026, Jharkhand
25/==/ADTPAdityapur (3)  19:47+719:48+71m11473.337152mSERJamshedpur, Jharkhand
26/==/KNDKandra (4)  20:12 20:14+1020:13 20:15+111m--1489.328176mSERJamshedpur, Jharkhand
27/==/CNIChandil Junction (4)X  20:45+720:47+92m21503.578178mSERChandil, Jharkhand
28/==/BBMBarabhum  21:04+2121:05+221m--1525.764229mSERBalarampur, West Bengal
29/==/PRRPurulia Junction (4)  21:35+1721:40+175m31557.557240mSERPurulia, West Bengal
30/==/ANRAnara (2)  22:07+1922:08+201m--1583.328216mSERdist - Purulia, West Bengal
31/==/JOCJoychandi Pahar (3)  22:37+1022:38+141m--1596.650176mSERDist - Purulia, West Bengal
32/=-/BURNBurnpur (3)  23:17+1623:18+191m--1628.86134mSERCHITRA CINEMA HALL MORE, West Bengal
33/--/ASNAsansol Junction (7)XO00:05+200:30+425m52633.765113mERDist - Bardhaman, West Bengal
34/==/CRJChittaranjan (3)X  00:54 00:53+1300:55+131 2m32658.866182mERMihijam, Jharkhand
35/==/JMTJamtara (2)  01:07 01:08+1301:08 01:10+131 2m12673.174201mERJamtara, Jharkhand
36/==/MDPMadhupur Junction (4)XO  01:49 01:44+1701:53 01:48+184m--2715.273254mER06432-224478, Jharkhand
37/==/JSMEJasidih Junction (5)  02:18 02:12+1602:23 02:17+145m--2744.355271mERJasidih, Jharkhand
38/==/JAJJhajha (4)X  03:12 03:05+1203:17 03:10+135m--2788.482143mECRJhajha, Bihar
39/==/JMUJamui (2)  03:37 03:29+2503:38 03:31+261 2m--2814.46881mECRState Highway 72, Bihar
40/==/KIULKiul Junction (5)X  04:02 03:55+2804:07 04:00+285m--2841.71453mECRDist. Lakhisarai, Bihar
41/==/LKRLuckeesarai Junction (2)  04:14 04:06+2904:15 04:08+291 2m--2843.0-52mECRLakhisarai, Bihar
42/==/BRYABarhiya (3)XO  04:29 04:11+4304:30 04:13+451 2m--2858.13047mECRBarahiya, Bihar
43/==/HTZHathidah Junction (2)  04:42 04:32+4004:43 04:34+401 2m22867.55050mECRMusahari, Bihar
44/==/MKAMokama Junction (4)  04:53 04:44+4104:55 04:46+432m12875.94248mECRPatna, Bihar
45/==/BARHBarh (3)  05:14 05:23+3205:15 05:25+351 2m22901.66849mECRBarh, Bihar
46/==/ATLAthmal Gola (2)  05:24 05:33+3705:25 05:35+371 2m12910.76052mECRPatna, Bihar
47/==/BKPBakhtiyarpur Junction (5)  05:37 05:44+3605:39 05:46+372m22919.77051mECRPatna, Bihar
48/==/FUTFatwa (6)X  06:12 06:06+4806:13 06:08+471 2m--2943.06753mECRPatna, Bihar
49/==/PNCPatna Saheb (3)X  06:23 06:19+4906:24 06:21+491 2m--2955.21659mECRPatna 800008, Bihar
50/==/RJPBRajendra Nagar Bihar (4)X  06:54 06:48+3606:56 06:50+362m32962.5855mECRPatna 800001, Bihar
51/==/PNBEPatna Junction (10)•X  07:10+2507:20+2610m32965.11657mECRPatna 800001, Bihar
52/==/DNRDanapur (5)  07:55+27-52974.5-58mECRKhagaul, Bihar
Scroll to Top
Scroll to Bottom